Вернуться в каталог

STARLINK-36223

АктивенСвязьVLEO
NORAD 67126·PAYLOAD·🇺🇸 United States

Запущен Dec 15, 2025 с Cape Canaveral Space Force Station

Loading…

Ближайшие Пролёты (ближайшие 24 часа)

TLE

СвежийSource: CelesTrak SupGP

Эпоха: Sep 15, 2026, 04:10 UTC

1 67126C 25299AA  26258.17409722  .00023688  00000+0  85807-3 0  2589
2 67126  43.0020 178.7713 0001333 274.8903 195.3516 15.27564120    14

Отслеживайте STARLINK-36223 в реальном времени с AllMySat

Download on the App Store